Location: Observatoires du Mont Megantic
(45.4500°N, 71.1500°W)
Time: 22:17:21
(UTC-04:00)

Amateur Radio Satellites - All Passes

Search period start: 23 October 2017 21:47
Search period end: 24 October 2017 21:47
Location: Observatoires du Mont Megantic, 45.4500°N, 71.1500°W

Satellite Date Start Highest point End Downlink Frequencies (MHz)
Time Altitude Azimuth
Max Valier Satellite 23 Oct 21:53:30 21:57:12 63° 260° (W) 22:00:55 145.860
YUBILEINY 23 Oct 22:00:25 22:07:44 31° 278° (W) 22:15:05 435.215
LO-87 23 Oct 22:13:03 22:15:47 20° 67° (ENE) 22:18:32 145.935 - 145.965
ESTCUBE 1 23 Oct 22:15:55 22:19:13 21° 64° (ENE) 22:22:32 437.505/2401.250
PRISM 23 Oct 22:18:23 22:21:17 18° 93° (E) 22:24:10 437.425
BEESAT 2 23 Oct 22:20:41 22:22:05 12° 251° (WSW) 22:23:28 435.950
UNISAT 6 23 Oct 22:23:00 22:27:29 50° 99° (E) 22:31:50 437.425
AO-85 23 Oct 22:35:09 22:38:07 17° 248° (WSW) 22:41:13 145.980
TIGRISAT 23 Oct 22:36:40 22:41:14 64° 101° (E) 22:45:40 435.000
AIST 2D 23 Oct 23:03:30 23:05:15 13° 91° (E) 23:06:59 435.315
EO-88 23 Oct 23:11:21 23:12:32 11° 270° (W) 23:13:42 145.990 - 145.960
RS-15 23 Oct 23:12:17 23:22:55 37° 106° (ESE) 23:33:33 29.354- 29.394
VELOX 1 23 Oct 23:25:00 23:28:07 19° 63° (ENE) 23:31:15 145.980
FO-29 23 Oct 23:30:01 23:35:24 25° 301° (WNW) 23:41:10 435.910
SPROUT 23 Oct 23:45:03 23:49:03 40° 70° (ENE) 23:53:06 437.525
LO-87 23 Oct 23:45:52 23:49:02 29° 264° (W) 23:52:14 145.935 - 145.965
ESTCUBE 1 23 Oct 23:51:25 23:55:43 45° 261° (W) 00:00:03 437.505/2401.250
PRISM 23 Oct 23:52:50 23:56:44 42° 290° (WNW) 00:00:38 437.425
UNISAT 6 24 Oct 00:00:32 00:03:48 20° 297° (WNW) 00:07:01 437.425
EO-79 24 Oct 00:07:51 00:11:35 29° 96° (E) 00:15:16 145.935-145.965
POLYITAN 1 24 Oct 00:13:38 00:17:31 33° 97° (E) 00:21:20 437.675
TIGRISAT 24 Oct 00:14:36 00:17:22 16° 300° (WNW) 00:20:07 435.000
DX 1 24 Oct 00:18:53 00:21:50 18° 62° (ENE) 00:24:49 434.975-435.025
NANOSAT C BR1 24 Oct 00:33:09 00:37:16 48° 99° (E) 00:41:20 145.865
QB50P2 24 Oct 00:33:59 00:38:14 61° 101° (E) 00:42:24 145.880/145.840
UKube-1 24 Oct 00:34:44 00:37:33 17° 62° (ENE) 00:40:21 .
AIST 2D 24 Oct 00:35:21 00:38:37 39° 288° (WNW) 00:41:52 435.315
BUGSAT 1 24 Oct 00:35:33 00:37:08 12° 89° (E) 00:38:43 437.445
DUCHIFAT 1 24 Oct 00:41:35 00:45:44 52° 100° (E) 00:49:50 145.980
VELOX 1 24 Oct 01:00:00 01:04:13 47° 260° (W) 01:08:29 145.980
50 SAT 24 Oct 01:02:59 01:06:09 52° 74° (ENE) 01:09:21 437.505
Oscar 19 24 Oct 01:08:36 01:11:40 16° 90° (E) 01:14:44 437.125/150
NO-84 24 Oct 01:18:31 01:21:40 20° 128° (SE) 01:24:49 435.350 FM
SPROUT 24 Oct 01:21:53 01:25:06 20° 267° (W) 01:28:20 437.525
RS-15 24 Oct 01:22:08 01:34:30 76° 309° (NW) 01:46:49 29.354- 29.394
ITUPSAT 1 24 Oct 01:39:32 01:41:48 13° 57° (ENE) 01:44:04 437.325
EO-79 24 Oct 01:43:38 01:47:16 28° 293° (WNW) 01:50:53 145.935-145.965
POLYITAN 1 24 Oct 01:49:39 01:53:08 25° 294° (WNW) 01:56:35 437.675
BEESAT 24 Oct 01:51:20 01:54:25 17° 60° (ENE) 01:57:29 436.000
DX 1 24 Oct 01:53:28 01:57:39 50° 260° (W) 02:01:53 434.975-435.025
MOZHAYETS 4 24 Oct 02:07:43 02:11:25 24° 65° (ENE) 02:15:08
BUGSAT 1 24 Oct 02:08:44 02:12:57 68° 287° (WNW) 02:17:04 437.445
UKube-1 24 Oct 02:08:58 02:13:09 53° 259° (W) 02:17:24 .
NANOSAT C BR1 24 Oct 02:09:44 02:12:37 18° 297° (WNW) 02:15:29 145.865
Gurwin Techsat 1B 24 Oct 02:10:33 02:15:34 41° 98° (E) 02:20:34 435.225
QB50P2 24 Oct 02:11:07 02:13:31 15° 299° (WNW) 02:15:55 145.880/145.840
DUCHIFAT 1 24 Oct 02:18:16 02:21:00 17° 298° (WNW) 02:23:42 145.980
CUBESAT XI-V 24 Oct 02:32:43 02:33:43 11° 57° (ENE) 02:34:42 437.345
M-CUBED/EXP-1 PRIME 24 Oct 02:34:28 02:38:02 51° 107° (ESE) 02:41:50 437.505
Oscar 19 24 Oct 02:46:24 02:51:31 70° 287° (WNW) 02:56:35 437.125/150
NO-84 24 Oct 02:54:24 02:58:42 77° 325° (NW) 03:02:58 435.350 FM
AO-7 24 Oct 02:58:28 03:04:29 21° 91° (E) 03:10:28 .
ITUPSAT 1 24 Oct 03:14:05 03:18:55 88° 259° (W) 03:23:45 437.325
BEESAT 24 Oct 03:26:54 03:31:40 66° 258° (WSW) 03:36:27 436.000
ITAMSAT 1 24 Oct 03:28:38 03:32:30 21° 92° (E) 03:36:22 435.822/435.867
RS-15 24 Oct 03:38:20 03:49:22 36° 338° (NNW) 04:00:13 29.354- 29.394
MOZHAYETS 4 24 Oct 03:44:01 03:48:22 40° 262° (W) 03:52:44
Gurwin Techsat 1B 24 Oct 03:50:47 03:55:21 30° 296° (WNW) 03:59:55 435.225
CUBESAT XI-V 24 Oct 04:05:40 04:10:17 80° 75° (ENE) 04:14:55 437.345
O/OREOS (USA 219) 24 Oct 04:06:03 04:08:20 13° 46° (NE) 04:10:38 437.305
M-CUBED/EXP-1 PRIME 24 Oct 04:10:07 04:12:10 15° 301° (WNW) 04:14:17 437.505
Oscar 19 24 Oct 04:28:31 04:29:53 11° 306° (NW) 04:31:15 437.125/150
NO-84 24 Oct 04:32:59 04:36:39 27° 344° (NNW) 04:40:12 435.350 FM
KKS-1 24 Oct 04:40:57 04:45:17 57° 72° (ENE) 04:49:41 437.445
AO-7 24 Oct 04:49:53 04:58:14 87° 292° (WNW) 05:06:35 .
ITUPSAT 1 24 Oct 04:56:27 04:57:25 11° 273° (W) 04:58:23 437.325
STARS 24 Oct 05:02:08 05:06:13 39° 69° (ENE) 05:10:20 437.465
ITAMSAT 1 24 Oct 05:07:11 05:12:19 56° 290° (WNW) 05:17:25 435.822/435.867
O/OREOS (USA 219) 24 Oct 05:43:51 05:48:30 87° 67° (ENE) 05:53:04 437.305
CUBESAT XI-V 24 Oct 05:46:39 05:48:13 12° 272° (W) 05:49:49 437.345
SO-50 24 Oct 05:48:47 05:52:59 42° 119° (ESE) 05:57:14 436.795
DOVE 4 24 Oct 05:49:59 05:55:02 67° 101° (ESE) 06:00:15 437.250
RS-15 24 Oct 05:55:52 06:06:27 32° 13° (NNE) 06:16:37 29.354- 29.394
XW-2C 24 Oct 06:03:13 06:05:53 18° 93° (E) 06:08:32 145.795 - 145.815
CUTE-I 24 Oct 06:07:06 06:11:10 21° 92° (E) 06:15:13 437.470
HO-68 24 Oct 06:10:43 06:12:47 11° 84° (E) 06:14:52 435.675
NO-84 24 Oct 06:11:46 06:15:04 22° 5° (N) 06:18:13 435.350 FM
KKS-1 24 Oct 06:19:32 06:22:13 16° 269° (W) 06:24:53 437.445
KAITUO 1B 24 Oct 06:34:36 06:37:54 30° 96° (E) 06:41:11 145.475/437.950
STRAND 1 24 Oct 06:36:56 06:41:41 39° 67° (ENE) 06:46:28 437.568
STARS 24 Oct 06:39:16 06:42:41 22° 266° (W) 06:46:08 437.465
NUDT-PHONESAT 24 Oct 06:41:35 06:44:59 35° 97° (E) 06:48:20 437.300
XW-2F 24 Oct 06:43:32 06:47:10 50° 99° (E) 06:50:48 145.980 - 146.000
AO-7 24 Oct 06:43:47 06:49:58 24° 311° (NW) 06:56:10 .
CUTE 1.7 + AOD 2 24 Oct 06:50:19 06:52:50 15° 90° (E) 06:55:20 437.475
LilacSat-2 24 Oct 06:57:48 07:01:35 89° 109° (ESE) 07:05:20 437.200
CUBEBUG 2 24 Oct 06:59:18 07:01:10 12° 87° (E) 07:03:02 437.445
XW-2D 24 Oct 06:59:19 07:03:05 89° 103° (ESE) 07:06:49 145.860 - 145.880
PCSat 24 Oct 07:04:28 07:09:18 34° 111° (ESE) 07:14:10 145.827
XW-2B 24 Oct 07:12:59 07:16:42 65° 285° (WNW) 07:20:24 145.730 - 145.750
YUBILEINY 24 Oct 07:15:54 07:19:37 13° 72° (ENE) 07:23:20 435.215
O/OREOS (USA 219) 24 Oct 07:26:14 07:27:08 10° 264° (W) 07:28:02 437.305
UWE-3 24 Oct 07:28:02 07:30:18 14° 88° (E) 07:32:33 435.000/436.395/437.385
DOVE 4 24 Oct 07:28:46 07:32:14 19° 298° (WNW) 07:35:47 437.250
SO-50 24 Oct 07:29:39 07:33:34 29° 318° (NW) 07:37:32 436.795
XW-2C 24 Oct 07:36:47 07:40:09 33° 290° (WNW) 07:43:32 145.795 - 145.815
CUTE-I 24 Oct 07:46:18 07:51:34 56° 290° (WNW) 07:56:48 437.470
NO-84 24 Oct 07:49:23 07:53:17 43° 27° (NNE) 07:56:55 435.350 FM
HO-68 24 Oct 07:54:42 08:01:53 65° 103° (ESE) 08:09:01 435.675
FO-29 24 Oct 07:59:39 08:04:36 39° 65° (ENE) 08:10:01 435.910
TIGRISAT 24 Oct 08:05:25 08:05:31 10° 56° (NE) 08:05:36 435.000
AO-73 24 Oct 08:06:52 08:09:34 16° 90° (E) 08:12:15 145.935
KAITUO 1B 24 Oct 08:08:58 08:11:43 20° 293° (WNW) 08:14:27 145.475/437.950
RS-15 24 Oct 08:10:03 08:22:01 62° 44° (NE) 08:33:18 29.354- 29.394
NUDT-PHONESAT 24 Oct 08:16:06 08:18:35 18° 294° (WNW) 08:21:03 437.300
STRAND 1 24 Oct 08:16:31 08:20:56 29° 265° (W) 08:25:24 437.568
XW-2F 24 Oct 08:19:01 08:20:52 13° 297° (WNW) 08:22:44 145.980 - 146.000
SEEDS 24 Oct 08:23:24 08:27:36 86° 281° (W) 08:31:47 437.485
nSIGHT-1 24 Oct 08:24:19 08:27:01 26° 139° (SE) 08:29:44 .
CUTE 1.7 + AOD 2 24 Oct 08:24:53 08:28:58 51° 287° (WNW) 08:33:02 437.475
ZACube-1 24 Oct 08:30:44 08:34:40 32° 96° (E) 08:38:28 437.345
CUBEBUG 2 24 Oct 08:33:45 08:38:23 74° 285° (WNW) 08:42:48 437.445
AAUSAT CUBESAT 2 24 Oct 08:34:08 08:38:12 55° 100° (E) 08:42:15 437.432
XW-2A 24 Oct 08:41:20 08:44:41 82° 283° (WNW) 08:47:59 145.665 - 145.685
PCSat 24 Oct 08:47:30 08:52:36 41° 311° (NW) 08:57:45 145.827
Oscar 11 24 Oct 08:59:36 09:03:40 40° 98° (E) 09:07:42 .
UWE-3 24 Oct 09:02:47 09:07:14 63° 287° (WNW) 09:11:31 435.000/436.395/437.385
YUBILEINY 24 Oct 09:06:03 09:14:38 68° 93° (E) 09:23:17 435.215
ISS 24 Oct 09:07:43 09:10:53 54° 145° (SE) 09:14:05 437.550
PRISM 24 Oct 09:09:53 09:12:38 18° 63° (ENE) 09:15:26 437.425
DELFI C3 24 Oct 09:22:43 09:25:07 15° 91° (E) 09:27:30 145.870
UNISAT 6 24 Oct 09:23:12 09:27:46 57° 72° (ENE) 09:32:24 437.425
NO-84 24 Oct 09:27:02 09:30:38 35° 227° (SW) 09:33:57 435.350 FM
TIGRISAT 24 Oct 09:36:40 09:41:19 72° 74° (ENE) 09:46:01 435.000
AO-73 24 Oct 09:41:56 09:46:08 49° 288° (WNW) 09:50:12 145.935
HO-68 24 Oct 09:43:08 09:49:06 29° 303° (WNW) 09:55:05 435.675
FO-29 24 Oct 09:45:12 09:49:52 30° 267° (W) 09:54:55 435.910
nSIGHT-1 24 Oct 10:00:00 10:03:08 53° 337° (NNW) 10:06:16 .
ZACube-1 24 Oct 10:07:13 10:10:49 26° 294° (WNW) 10:14:20 437.345
AAUSAT CUBESAT 2 24 Oct 10:10:48 10:13:13 15° 297° (WNW) 10:15:37 437.432
RS-15 24 Oct 10:23:08 10:34:10 48° 250° (WSW) 10:44:40 29.354- 29.394
EO-88 24 Oct 10:34:44 10:38:18 51° 100° (E) 10:41:49 145.990 - 145.960
PCSat 24 Oct 10:35:33 10:37:32 12° 334° (NNW) 10:39:31 145.827
Oscar 11 24 Oct 10:36:18 10:39:34 21° 295° (WNW) 10:42:49 .
BEESAT 3 24 Oct 10:40:14 10:43:32 25° 115° (ESE) 10:46:52 437.485
PRISM 24 Oct 10:43:43 10:47:36 44° 261° (W) 10:51:30 437.425
ISS 24 Oct 10:44:26 10:47:28 35° 344° (NNW) 10:50:32 437.550
Max Valier Satellite 24 Oct 10:54:47 10:58:25 62° 286° (WNW) 11:02:01 145.860
DELFI C3 24 Oct 10:56:18 11:00:06 46° 288° (WNW) 11:03:54 145.870
UNISAT 6 24 Oct 11:01:46 11:04:50 17° 270° (W) 11:07:55 437.425
EO-79 24 Oct 11:02:04 11:05:46 29° 67° (ENE) 11:09:29 145.935-145.965
YUBILEINY 24 Oct 11:04:46 11:12:09 30° 295° (WNW) 11:19:37 435.215
POLYITAN 1 24 Oct 11:07:55 11:11:45 33° 69° (ENE) 11:15:38 437.675
LO-87 24 Oct 11:10:37 11:13:10 18° 93° (E) 11:15:43 145.935 - 145.965
AIST 2D 24 Oct 11:10:51 11:14:21 86° 259° (WSW) 11:17:51 435.315
TIGRISAT 24 Oct 11:16:07 11:18:30 14° 272° (W) 11:20:52 435.000
NANOSAT C BR1 24 Oct 11:26:49 11:30:53 46° 71° (ENE) 11:34:58 145.865
BUGSAT 1 24 Oct 11:27:25 11:29:15 13° 60° (ENE) 11:31:06 437.445
QB50P2 24 Oct 11:28:08 11:32:19 60° 73° (ENE) 11:36:34 145.880/145.840
DUCHIFAT 1 24 Oct 11:34:55 11:39:01 50° 71° (ENE) 11:43:09 145.980
nSIGHT-1 24 Oct 11:37:06 11:39:52 26° 357° (N) 11:42:37 .
ESTCUBE 1 24 Oct 11:41:32 11:45:31 30° 96° (E) 11:49:28 437.505/2401.250
Gurwin Techsat 1B 24 Oct 11:57:29 11:59:53 13° 55° (NE) 12:02:18 435.225
EO-88 24 Oct 12:09:51 12:11:31 13° 297° (WNW) 12:13:11 145.990 - 145.960
BEESAT 2 24 Oct 12:10:47 12:14:45 67° 123° (ESE) 12:18:48 435.950
AO-7 24 Oct 12:14:41 12:16:33 11° 34° (NNE) 12:18:25 .
BEESAT 3 24 Oct 12:17:12 12:20:56 36° 313° (NW) 12:24:42 437.485
ISS 24 Oct 12:21:41 12:24:31 27° 4° (N) 12:27:22 437.550
Oscar 19 24 Oct 12:27:00 12:31:27 30° 65° (ENE) 12:35:53 437.125/150
EO-79 24 Oct 12:37:47 12:41:28 28° 265° (W) 12:45:11 145.935-145.965
SO-50 24 Oct 12:38:04 12:40:53 16° 32° (NNE) 12:43:43 436.795
LO-87 24 Oct 12:43:24 12:46:39 32° 290° (WNW) 12:49:53 145.935 - 145.965
POLYITAN 1 24 Oct 12:44:03 12:47:34 25° 266° (W) 12:51:07 437.675
VELOX 1 24 Oct 12:47:46 12:51:32 26° 95° (E) 12:55:16 145.980
AO-85 24 Oct 12:50:24 12:54:17 81° 308° (NW) 12:58:19 145.980
BUGSAT 1 24 Oct 12:59:48 13:04:00 75° 257° (WSW) 13:08:16 437.445
SPROUT 24 Oct 13:03:46 13:08:01 57° 100° (E) 13:12:14 437.525
NANOSAT C BR1 24 Oct 13:03:57 13:06:49 18° 268° (W) 13:09:42 145.865
QB50P2 24 Oct 13:06:16 13:08:30 14° 270° (W) 13:10:45 145.880/145.840
DUCHIFAT 1 24 Oct 13:12:15 13:14:58 16° 269° (W) 13:17:40 145.980
nSIGHT-1 24 Oct 13:13:41 13:16:41 36° 17° (NNE) 13:19:42 .
ESTCUBE 1 24 Oct 13:18:23 13:22:15 29° 293° (WNW) 13:26:07 437.505/2401.250
M-CUBED/EXP-1 PRIME 24 Oct 13:22:42 13:26:00 82° 252° (WSW) 13:29:16 437.505
Gurwin Techsat 1B 24 Oct 13:33:41 13:38:59 80° 72° (ENE) 13:44:19 435.225
DX 1 24 Oct 13:39:38 13:43:08 23° 94° (E) 13:46:37 434.975-435.025
BEESAT 2 24 Oct 13:50:01 13:52:54 19° 322° (NW) 13:55:49 435.950
50 SAT 24 Oct 13:51:40 13:54:42 33° 98° (E) 13:57:42 437.505
UKube-1 24 Oct 13:54:09 13:57:26 21° 94° (E) 14:00:41 .
ISS 24 Oct 13:58:11 14:01:25 59° 24° (NNE) 14:04:39 437.550
AO-7 24 Oct 13:59:33 14:07:01 39° 57° (ENE) 14:14:28 .
Oscar 19 24 Oct 14:05:51 14:10:38 38° 263° (W) 14:15:27 437.125/150
PCSat 24 Oct 14:07:35 14:09:58 13° 28° (NNE) 14:12:22 145.827
SO-50 24 Oct 14:17:32 14:22:09 72° 52° (NE) 14:26:48 436.795
VELOX 1 24 Oct 14:24:00 14:27:59 33° 292° (WNW) 14:31:59 145.980
AO-85 24 Oct 14:33:16 14:35:24 14° 328° (NNW) 14:37:34 145.980
SPROUT 24 Oct 14:40:49 14:43:28 16° 298° (WNW) 14:46:06 437.525
ITAMSAT 1 24 Oct 14:48:20 14:53:08 40° 67° (ENE) 14:57:59 435.822/435.867
nSIGHT-1 24 Oct 14:49:57 14:53:03 48° 215° (SW) 14:56:08 .
ITUPSAT 1 24 Oct 15:13:10 15:16:39 20° 92° (E) 15:20:07 437.325
DX 1 24 Oct 15:15:22 15:19:25 37° 291° (WNW) 15:23:27 434.975-435.025
Gurwin Techsat 1B 24 Oct 15:16:43 15:19:33 14° 272° (W) 15:22:25 435.225
50 SAT 24 Oct 15:24:44 15:26:43 15° 295° (WNW) 15:28:42 437.505
BEESAT 24 Oct 15:25:06 15:29:07 26° 94° (E) 15:33:05 436.000
UKube-1 24 Oct 15:29:32 15:33:36 40° 291° (WNW) 15:37:38 .
ISS 24 Oct 15:35:01 15:37:42 23° 222° (SW) 15:40:22 437.550
MOZHAYETS 4 24 Oct 15:36:29 15:40:46 38° 98° (E) 15:45:01
PCSat 24 Oct 15:49:33 15:54:47 46° 51° (NE) 15:59:59 145.827
AO-7 24 Oct 15:51:25 15:59:30 56° 257° (WSW) 16:07:39 .
SO-50 24 Oct 15:59:19 16:02:05 16° 250° (WSW) 16:04:51 436.795
CUBESAT XI-V 24 Oct 16:00:57 16:03:54 17° 91° (E) 16:06:51 437.345
ITAMSAT 1 24 Oct 16:28:12 16:32:41 29° 265° (W) 16:37:13 435.822/435.867
HO-68 24 Oct 16:42:26 16:45:53 14° 46° (NE) 16:49:20 435.675
XW-2C 24 Oct 16:47:20 16:49:16 14° 63° (ENE) 16:51:12 145.795 - 145.815
ITUPSAT 1 24 Oct 16:50:07 16:54:45 50° 290° (WNW) 16:59:22 437.325
DOVE 4 24 Oct 16:57:45 17:01:59 79° 77° (ENE) 17:06:30 437.250
BEESAT 24 Oct 17:02:34 17:06:58 38° 292° (WNW) 17:11:22 436.000
MOZHAYETS 4 24 Oct 17:14:02 17:17:43 24° 295° (WNW) 17:21:23
KAITUO 1B 24 Oct 17:16:49 17:19:36 21° 67° (ENE) 17:22:25 145.475/437.950
NUDT-PHONESAT 24 Oct 17:22:47 17:25:44 23° 67° (ENE) 17:28:41 437.300
XW-2F 24 Oct 17:26:12 17:29:35 33° 70° (ENE) 17:32:58 145.980 - 146.000
CUTE-I 24 Oct 17:30:43 17:35:43 43° 68° (ENE) 17:40:44 437.470
PCSat 24 Oct 17:33:19 17:37:59 30° 250° (WSW) 17:42:37 145.827
CUBESAT XI-V 24 Oct 17:37:07 17:41:37 56° 288° (WNW) 17:46:07 437.345
LilacSat-2 24 Oct 17:41:15 17:44:59 57° 75° (ENE) 17:48:44 437.200
XW-2D 24 Oct 17:42:06 17:45:49 56° 73° (ENE) 17:49:32 145.860 - 145.880
CUTE 1.7 + AOD 2 24 Oct 17:45:21 17:47:50 15° 63° (ENE) 17:50:20 437.475
XW-2B 24 Oct 17:55:39 17:59:26 79° 76° (ENE) 18:03:13 145.730 - 145.750
CUBEBUG 2 24 Oct 17:58:54 18:01:41 16° 60° (ENE) 18:04:29 437.445
KKS-1 24 Oct 18:05:48 18:10:19 84° 105° (ESE) 18:14:48 437.445
XW-2C 24 Oct 18:19:20 18:23:02 52° 261° (W) 18:26:44 145.795 - 145.815
STARS 24 Oct 18:24:57 18:29:20 55° 101° (ESE) 18:33:40 437.465
HO-68 24 Oct 18:25:11 18:32:11 60° 67° (ENE) 18:39:14 435.675
UWE-3 24 Oct 18:26:38 18:29:37 17° 62° (ENE) 18:32:35 435.000/436.395/437.385
DOVE 4 24 Oct 18:39:42 18:40:23 10° 274° (W) 18:41:05 437.250
STRAND 1 24 Oct 18:47:49 18:48:55 11° 86° (E) 18:50:02 437.568
BEESAT 2 24 Oct 18:49:43 18:51:59 14° 34° (NE) 18:54:12 435.950
KAITUO 1B 24 Oct 18:50:07 18:53:25 30° 264° (W) 18:56:44 145.475/437.950
BEESAT 3 24 Oct 18:54:13 18:57:51 32° 46° (NE) 19:01:23 437.485
NUDT-PHONESAT 24 Oct 18:56:18 18:59:29 27° 264° (W) 19:02:40 437.300
XW-2F 24 Oct 19:01:03 19:03:46 19° 267° (W) 19:06:30 145.980 - 146.000
AO-73 24 Oct 19:04:03 19:07:14 19° 64° (ENE) 19:10:24 145.935
CUTE-I 24 Oct 19:11:22 19:15:53 28° 266° (W) 19:20:28 437.470
YUBILEINY 24 Oct 19:13:31 19:21:35 38° 69° (ENE) 19:29:38 435.215
XW-2A 24 Oct 19:14:02 19:17:16 42° 72° (ENE) 19:20:30 145.665 - 145.685
SEEDS 24 Oct 19:16:37 19:20:46 84° 78° (ENE) 19:24:57 437.485
LilacSat-2 24 Oct 19:18:19 19:19:37 11° 271° (W) 19:20:55 437.200
XW-2D 24 Oct 19:19:00 19:20:20 11° 270° (W) 19:21:39 145.860 - 145.880
CUTE 1.7 + AOD 2 24 Oct 19:19:05 19:23:14 56° 260° (W) 19:27:23 437.475
AAUSAT CUBESAT 2 24 Oct 19:25:55 19:29:50 46° 72° (ENE) 19:33:47 437.432
ZACube-1 24 Oct 19:27:59 19:32:07 35° 69° (ENE) 19:36:15 437.345
CUBEBUG 2 24 Oct 19:33:00 19:37:42 72° 258° (WSW) 19:42:29 437.445
AO-85 24 Oct 19:38:47 19:42:32 26° 42° (NE) 19:46:30 145.980
KKS-1 24 Oct 19:44:19 19:46:12 13° 302° (WNW) 19:48:06 437.445
Oscar 11 24 Oct 19:56:10 20:00:13 40° 70° (ENE) 20:04:16 .
O/OREOS (USA 219) 24 Oct 19:58:01 20:02:32 67° 110° (ESE) 20:07:07 437.305
UWE-3 24 Oct 20:00:56 20:05:33 64° 259° (W) 20:10:12 435.000/436.395/437.385
STARS 24 Oct 20:02:19 20:05:14 18° 299° (WNW) 20:08:10 437.465
DELFI C3 24 Oct 20:10:55 20:12:37 13° 62° (ENE) 20:14:20 145.870
HO-68 24 Oct 20:14:14 20:20:18 29° 266° (W) 20:26:27 435.675
STRAND 1 24 Oct 20:23:42 20:28:54 82° 103° (ESE) 20:34:02 437.568
BEESAT 2 24 Oct 20:26:18 20:30:22 80° 53° (NE) 20:34:22 435.950
BEESAT 3 24 Oct 20:31:53 20:35:18 28° 244° (WSW) 20:38:40 437.485
AO-73 24 Oct 20:38:37 20:43:05 52° 261° (W) 20:47:32 145.935
XW-2A 24 Oct 20:48:47 20:50:11 12° 269° (W) 20:51:37 145.665 - 145.685
FO-29 24 Oct 20:49:16 20:55:46 36° 95° (E) 21:02:44 435.910
AAUSAT CUBESAT 2 24 Oct 21:02:59 21:05:32 16° 269° (W) 21:08:07 437.432
ZACube-1 24 Oct 21:04:33 21:08:25 27° 266° (W) 21:12:17 437.345
YUBILEINY 24 Oct 21:10:14 21:18:42 54° 270° (W) 21:27:10 435.215
EO-88 24 Oct 21:14:17 21:17:30 30° 70° (ENE) 21:20:43 145.990 - 145.960
UNISAT 6 24 Oct 21:16:00 21:16:26 10° 86° (E) 21:16:53 437.425
AO-85 24 Oct 21:18:44 21:23:10 54° 239° (WSW) 21:27:58 145.980
TIGRISAT 24 Oct 21:27:53 21:29:59 13° 88° (E) 21:32:03 435.000
Oscar 11 24 Oct 21:33:14 21:36:30 21° 267° (W) 21:39:46 .
Max Valier Satellite 24 Oct 21:34:57 21:38:40 76° 76° (ENE) 21:42:24 145.860
O/OREOS (USA 219) 24 Oct 21:39:21 21:42:26 17° 311° (NW) 21:45:33 437.305
